CW9487 Weather Reports


Display with metric or nautical units.
time (UTC)temp
F
wind
direction
speed
MPH
gust
MPH
rain 1hr
in
rain 24hr
in
rain mn
in
humidity
%
barometer
mb
20260503224553 51 275 0.0 0.0 0.00 0.00 0.00 73 1019.5
20260503223050 52 275 0.0 0.0 0.00 0.00 0.00 72 1019.6
20260503221554 52 275 0.0 0.0 0.00 0.00 0.00 74 1019.6
20260503220050 52 275 0.0 0.0 0.00 0.00 0.00 74 1019.5
20260503214550 52 275 0.0 0.0 0.00 0.00 0.00 78 1019.4
20260503213045 52 275 0.0 0.0 0.00 0.00 0.00 77 1019.3
20260503211547 52 275 0.0 0.0 0.00 0.00 0.00 78 1019.4
20260503210045 52 275 0.0 0.0 0.00 0.00 0.00 74 1019.3
20260503204543 53 275 0.0 0.0 0.00 0.00 0.00 78 1019.3
20260503203102 53 275 0.0 1.0 0.00 0.00 0.00 76 1019.4
20260503201543 54 275 0.0 2.0 0.00 0.00 0.00 74 1019.3
20260503200042 55 330 0.0 1.0 0.00 0.00 0.00 68 1019.3
20260503194544 55 330 1.0 6.0 0.00 0.00 0.00 64 1019.2
20260503193041 56 294 0.0 4.0 0.00 0.00 0.00 63 1019.1
20260503191547 56 294 0.0 4.0 0.00 0.00 0.00 60 1018.8
20260503190050 58 277 1.0 6.0 0.00 0.00 0.00 64 1018.8
20260503184538 57 306 3.0 6.0 0.00 0.00 0.00 63 1018.6
20260503183037 57 309 2.0 8.0 0.00 0.00 0.00 65 1018.5
20260503181538 57 318 2.0 8.0 0.00 0.00 0.00 64 1018.5
20260503180037 56 284 2.0 8.0 0.00 0.00 0.00 62 1018.5
20260503174535 56 267 0.0 9.0 0.00 0.00 0.00 69 1018.5
20260503173034 58 287 0.0 1.0 0.00 0.00 0.00 74 1018.4
20260503171534 59 294 0.0 8.0 0.00 0.00 0.00 68 1018.4
20260503081507 68 308 0.0 2.0 0.00 0.00 0.00 46 1020.9
20260503071546 61 238 0.0 0.0 0.00 0.00 0.00 59 1020.9
20260503060107 53 238 0.0 0.0 0.00 0.00 0.00 80 1021.0
20260503054554 53 238 0.0 0.0 0.00 0.00 0.00 78 1020.8
20260503053041 54 238 0.0 0.0 0.00 0.00 0.00 75 1020.7
20260503051536 54 264 1.0 7.0 0.00 0.00 0.00 66 1020.5
20260503050037 54 311 2.0 9.0 0.00 0.00 0.00 67 1020.5
20260503044535 53 298 2.0 5.0 0.00 0.00 0.00 69 1020.4
20260503043037 51 300 2.0 6.0 0.00 0.00 0.00 70 1020.3
20260503041534 51 266 0.0 0.0 0.00 0.00 0.00 76 1020.4
20260503040038 51 259 0.0 0.0 0.00 0.00 0.00 79 1020.4
20260503034533 51 259 0.0 0.0 0.00 0.00 0.00 83 1020.4
20260503033034 51 259 0.0 4.0 0.00 0.00 0.00 88 1020.4
20260503031531 51 229 0.0 3.0 0.00 0.00 0.00 88 1020.5
20260503030030 51 213 0.0 2.0 0.00 0.00 0.00 87 1020.5
20260503024530 50 213 0.0 0.0 0.00 0.00 0.00 85 1020.5
20260503023028 51 213 0.0 2.0 0.00 0.00 0.00 92 1020.5
20260503021528 50 298 0.0 3.0 0.00 0.00 0.00 92 1020.6
20260503020027 50 308 0.0 0.0 0.00 0.00 0.00 89 1020.7
20260503014526 50 308 0.0 0.0 0.00 0.00 0.00 86 1020.7
20260503013022 51 308 0.0 0.0 0.00 0.00 0.00 85 1020.6
20260503011523 51 308 0.0 0.0 0.00 0.00 0.00 83 1020.8
20260503010025 51 308 0.0 0.0 0.00 0.00 0.00 84 1020.8
20260503004518 52 308 0.0 0.0 0.00 0.00 0.00 80 1021.0
20260503003014 52 307 0.0 0.0 0.00 0.00 0.00 78 1021.2
20260503001512 52 308 0.0 0.0 0.00 0.00 0.00 79 1021.1
20260503000011 53 307 0.0 7.0 0.00 0.00 0.00 81 1021.3
20260502234522 53 274 1.0 8.0 0.00 0.00 0.00 76 1021.4
20260502233008 53 265 0.0 6.0 0.00 0.00 0.00 70 1021.4
20260502231506 52 287 1.0 5.0 0.00 0.00 0.00 82 1021.5
20260502230005 53 303 0.0 9.0 0.00 0.00 0.00 79 1021.8